"Pseudo-MPEC" for cap0285

Created 2024 Sep 5 18:22:42 UT using Find_Orb

Click here for an explanation of pseudo-MPECs

 
 Astrometry: 
     cap0285*KB2024 09 03.01497 23 49 09.61 +29 50 08.0    ~933M 19.5 GXNEOCPG03
     cap0285 KB2024 09 03.04365 23 49 06.89 +29 50 43.5    ~933M 20.7 GXNEOCPG03
     cap0285 KB2024 09 03.07235 23 49 04.28 +29 51 17.2    ~933M 20.1 GXNEOCPG03
     cap0285 1C2024 09 03.80125 23 47 57.93 +30 05 44.7    ~93Mb 21.3 VXNEOCP033
     cap0285 1C2024 09 03.80188 23 47 57.84 +30 05 45.8    ~93Mb 21.4 VXNEOCP033
     cap0285 1C2024 09 03.80251 23 47 57.79 +30 05 46.3    ~93Mb 21.3 VXNEOCP033
     cap0285 1C2024 09 03.80319 23 47 57.72 +30 05 47.0    ~93Mb 21.4 VXNEOCP033
     cap0285 1C2024 09 03.92514 23 47 46.24 +30 08 12.9    ~93Mb 21.6 VXNEOCP033
     cap0285 1C2024 09 03.92577 23 47 46.17 +30 08 13.6    ~93Mb 21.5 VXNEOCP033
     cap0285 1C2024 09 03.92639 23 47 46.12 +30 08 14.4    ~93Mb 21.6 VXNEOCP033
     cap0285 1C2024 09 03.92707 23 47 46.04 +30 08 15.2    ~93Mb 21.5 VXNEOCP033
     cap0285 1C2024 09 03.92770 23 47 45.99 +30 08 15.9    ~93Mb 21.6 VXNEOCP033
     cap0285 KC2024 09 04.11619 23 47 28.60 +30 11 59.2    ~944q 19.8 GXNEOCPW62
     cap0285 KC2024 09 04.14763 23 47 25.59 +30 12 36.7    ~944q 19.9 GXNEOCPW62
     cap0285 KC2024 09 05.28603723 45 37.74 +30 34 39.8    ~957M 21.5 GVNEOCPH21
     cap0285 KC2024 09 05.29163023 45 37.19 +30 34 46.2    ~957M 21.5 GVNEOCPH21
     cap0285 KB2024 09 05.29542 23 45 36.876+30 34 50.70   ~958M 20.6 GVNEOCP734
     cap0285 KB2024 09 05.30698 23 45 35.726+30 35 04.09   ~958M 20.4 GVNEOCP734
     cap0285 KB2024 09 05.31854 23 45 34.603+30 35 17.34   ~958M 20.9 GVNEOCP734

Station data:
(033) Karl Schwarzschild Observatory, Tautenburg  (N50.980139 E11.711240)
   Germany.  Observer B. Stecklum. 1.34-m f/3 Schmidt + CCD.
(734) Farpoint Observatory, Eskridge  (N38.890239 W96.002420)  US/Kansas.
   Observer G. Hug. 0.69-m reflector + CCD.
(G03) Capricornus Observatory, Csokako  (N47.362995 E18.260610)  Hungary.
   Observer T. Maroti. 0.28-m f/2.2 reflector + CCD.
(H21) Astronomical Research Observatory, Westfield  (N39.483054 W87.968270)
   US/Illinois.  Observer R. Holmes. Measurers S. Foglia, L. Buzzi, T.
   Linder, R. Holmes. 0.76-m f/3.0 astrograph + CCD0.81-m f/4.0 astrograph +
   CCD0.61-m f/4.5 astrograph + CCD0.40-m f/5.32 astrograph + CCD.
(W62) Comet Hunter Observatory2, New Ringgold  (N40.745185 W75.862390)
   US/Pennsylvania.  Observer J. Maikner. 0.30-m f/3.8 Riccardi-Honders + CCD.

Orbital elements:  cap0285
   Perihelion 2024 Oct 23.02050 +/- 7.33 TT =  0:29:31 (JD 2460606.52050)
Epoch 2024 Sep  5.0 TT = JDT 2460558.5                           AutoNEOCP
M 348.44785806 +/- 1.8              (J2000 ecliptic)
n   0.24056689 +/- 0.00697          Peri.   50.23479 +/- 2.9
a   2.56042549 +/- 0.0495           Node   328.52171 +/- 0.44
e   0.2309175 +/- 0.00885           Incl.   31.21264 +/- 0.48
P   4.09702                H 18.42  G  0.15   U  9.4
q 1.96917841 +/- 0.0154    Q 3.15167258 +/- 0.0835
From 19 observations 2024 Sept. 3-5; mean residual 0".22
Residuals in arcseconds: 
240903 G03  .03+  .50-    240903 033  .13+  .12-    240905 H21  .04+  .08-    
240903 G03  .48-  .62+    240903 033  .00   .17-    240905 H21  .07+  .09-    
240903 G03  .42+  .02+    240903 033  .11+  .11-    240905 734  .03-  .04-    
240903 033  .38+  .26-    240903 033  .09-  .12-    240905 734  .14-  .10+    
240903 033  .03-  .08+    240903 033  .04+  .17-    240905 734  .09+  .11+    
240903 033  .09+  .17-    240904 W62  .10-  .20+    
240903 033  .00   .29-    240904 W62  .21-  .31+    

Ephemerides (geocentric):
Date (UTC) HH   RA             Dec           delta  r     elong  mag " sig PA
---- --------  ------------   ------------  ------ ------ -----  --- --------
2024 09 05 18  23 44 53.177   +30 43 30.71  1.1006 1.9886 141.1 21.1 .225  29
2024 09 05 19  23 44 49.153   +30 44 18.00  1.1005 1.9886 141.1 21.1 .245  28
2024 09 05 20  23 44 45.125   +30 45 05.25  1.1004 1.9886 141.1 21.1 .266  28
2024 09 05 21  23 44 41.093   +30 45 52.45  1.1002 1.9885 141.2 21.1 .287  27
2024 09 05 22  23 44 37.059   +30 46 39.60  1.1001 1.9885 141.2 21.1 .309  27
2024 09 05 23  23 44 33.021   +30 47 26.71  1.1000 1.9885 141.2 21.1 .331  27
2024 09 06 00  23 44 28.979   +30 48 13.78  1.0998 1.9884 141.2 21.1 .354  26
2024 09 06 01  23 44 24.935   +30 49 00.79  1.0997 1.9884 141.2 21.1 .377  26
2024 09 06 02  23 44 20.887   +30 49 47.77  1.0995 1.9884 141.2 21.1 .401  26
2024 09 06 03  23 44 16.836   +30 50 34.69  1.0994 1.9883 141.3 21.1 .426  26
2024 09 06 04  23 44 12.781   +30 51 21.57  1.0993 1.9883 141.3 21.1 .451  25
2024 09 06 05  23 44 08.723   +30 52 08.41  1.0991 1.9883 141.3 21.1 .477  25
2024 09 06 06  23 44 04.662   +30 52 55.20  1.0990 1.9882 141.3 21.1 .503  25
2024 09 06 07  23 44 00.598   +30 53 41.94  1.0989 1.9882 141.3 21.1 .530  25
2024 09 06 08  23 43 56.530   +30 54 28.64  1.0988 1.9882 141.3 21.1 .557  25
2024 09 06 09  23 43 52.459   +30 55 15.29  1.0986 1.9881 141.4 21.1 .585  25
2024 09 06 10  23 43 48.385   +30 56 01.89  1.0985 1.9881 141.4 21.1 .614  24
2024 09 06 11  23 43 44.307   +30 56 48.45  1.0984 1.9881 141.4 21.1 .643  24
2024 09 06 12  23 43 40.227   +30 57 34.96  1.0982 1.9880 141.4 21.1 .672  24
2024 09 06 13  23 43 36.143   +30 58 21.43  1.0981 1.9880 141.4 21.1 .702  24
2024 09 06 14  23 43 32.056   +30 59 07.85  1.0980 1.9880 141.4 21.1 .733  24
2024 09 06 15  23 43 27.965   +30 59 54.22  1.0978 1.9879 141.5 21.1 .764  24
2024 09 06 16  23 43 23.872   +31 00 40.54  1.0977 1.9879 141.5 21.1 .796  24
2024 09 06 17  23 43 19.775   +31 01 26.82  1.0976 1.9879 141.5 21.1 .828  24
2024 09 06 18  23 43 15.675   +31 02 13.05  1.0975 1.9878 141.5 21.1 .861  24
2024 09 06 19  23 43 11.572   +31 02 59.24  1.0973 1.9878 141.5 21.1 .894  23
2024 09 06 20  23 43 07.466   +31 03 45.38  1.0972 1.9878 141.5 21.1 .928  23
2024 09 06 21  23 43 03.356   +31 04 31.47  1.0971 1.9877 141.6 21.1 .963  23
2024 09 06 22  23 42 59.244   +31 05 17.51  1.0970 1.9877 141.6 21.1 1.00  23
2024 09 06 23  23 42 55.128   +31 06 03.51  1.0968 1.9877 141.6 21.1 1.03  23
2024 09 07 00  23 42 51.009   +31 06 49.46  1.0967 1.9876 141.6 21.1 1.07  23
2024 09 07 01  23 42 46.887   +31 07 35.36  1.0966 1.9876 141.6 21.1 1.11  23
2024 09 07 02  23 42 42.762   +31 08 21.22  1.0965 1.9876 141.6 21.1 1.14  23
2024 09 07 03  23 42 38.633   +31 09 07.02  1.0963 1.9875 141.6 21.1 1.18  23
2024 09 07 04  23 42 34.502   +31 09 52.78  1.0962 1.9875 141.7 21.1 1.22  23
2024 09 07 05  23 42 30.367   +31 10 38.50  1.0961 1.9875 141.7 21.1 1.26  23
2024 09 07 06  23 42 26.230   +31 11 24.16  1.0960 1.9874 141.7 21.1 1.30  23
2024 09 07 07  23 42 22.089   +31 12 09.78  1.0958 1.9874 141.7 21.1 1.34  23
2024 09 07 08  23 42 17.945   +31 12 55.35  1.0957 1.9874 141.7 21.1 1.38  23
2024 09 07 09  23 42 13.798   +31 13 40.87  1.0956 1.9873 141.7 21.1 1.42  22
2024 09 07 10  23 42 09.648   +31 14 26.34  1.0955 1.9873 141.8 21.1 1.46  22
2024 09 07 11  23 42 05.496   +31 15 11.77  1.0954 1.9873 141.8 21.1 1.50  22
2024 09 07 12  23 42 01.339   +31 15 57.15  1.0952 1.9872 141.8 21.1 1.55  22
2024 09 07 13  23 41 57.180   +31 16 42.48  1.0951 1.9872 141.8 21.1 1.59  22
2024 09 07 14  23 41 53.018   +31 17 27.76  1.0950 1.9872 141.8 21.1 1.63  22
2024 09 07 15  23 41 48.853   +31 18 13.00  1.0949 1.9871 141.8 21.1 1.68  22
2024 09 07 16  23 41 44.685   +31 18 58.18  1.0948 1.9871 141.8 21.1 1.72  22
2024 09 07 17  23 41 40.514   +31 19 43.32  1.0946 1.9871 141.9 21.1 1.77  22